Regional Weather Roundup
Issued by NWS

Home | Current Version | Previous Version | Text Only | Print | Product List | Glossary Off
Versions: 1 2 3 4 5 6 7 8 9 10 11 12 13 14 15 16 17 18 19 20 21 22 23 24 25 26 27 28 29 30 31 32 33 34 35 36 37 38 39 40 41 42 43 44 45 46 47 48 49 50

000
ASUS45 KCYS 021910
RWRWY

WYOMING REGIONAL WEATHER ROUNDUP
NATIONAL WEATHER SERVICE CHEYENNE WY
100 PM MDT TUE SEP 02 2014

NOTE:  "FAIR" INDICATES FEW OR NO CLOUDS BELOW 12,000 FEET
WITH NO SIGNIFICANT WEATHER AND/OR OBSTRUCTIONS TO VISIBILITY.

WYZ001-022000-
YELLOWSTONE NATIONAL PARK

CITY           SKY/WX    TMP DP  RH WIND       PRES   REMARKS
LK YELLOWSTONE   N/A     59  33  37 W9G18     30.16F
W YELLOWSTONE  NOT AVBL

$$
WYZ002>013-054>058-071-098>099-022000-
NORTHERN WYOMING

CITY           SKY/WX    TMP DP  RH WIND       PRES   REMARKS
JACKSON        SUNNY     72  32  23 S12G23    30.08F
CODY             N/A    N/A N/A N/A MISG        N/A
GREYBULL       MOSUNNY   74  35  24 SE3       29.90F
WORLAND        SUNNY     75  40  28 N6        29.91F
SHERIDAN       MOSUNNY   73  39  29 CALM      29.91F
BUFFALO        MOSUNNY   74  37  26 VRB3      29.96F
GILLETTE       SUNNY     75  35  23 S9        29.93F
HULETT         FAIR      75  37  25 MISG      29.94
NEWCASTLE      FAIR      73  37  27 MISG      29.96

$$
WYZ014>020-022>026-101>103-022000-
CENTRAL WYOMING

CITY           SKY/WX    TMP DP  RH WIND       PRES   REMARKS
BIG PINEY      SUNNY     68  35  29 VRB6      30.15F
PINEDALE       CLEAR     64  32  29 NE6       30.17F
DUBOIS         FAIR      64  28  25 W20G29    30.09F
LANDER         SUNNY     74  33  22 E6        29.98F
RIVERTON       SUNNY     71  27  19 W6        30.00F
CASPER         SUNNY     79  31  17 SW18G25   29.99F
DOUGLAS        SUNNY     79  35  20 VRB3      29.99F

$$
WYZ021-027>030-104>119-022000-
SOUTHERN WYOMING

CITY           SKY/WX    TMP DP  RH WIND       PRES   REMARKS
EVANSTON       SUNNY     75  37  25 SW17G30   30.15F
KEMMERER       CLEAR     70  32  24 S6        30.17F
FORT BRIDGER   FAIR      71  32  23 CALM      30.18F
ROCK SPRINGS   SUNNY     73  30  20 W8        30.13F
DIXON          FAIR      74  37  25 SW12G17   30.18F
RAWLINS        SUNNY     73  28  18 SW26G35   30.13F
SARATOGA       FAIR      72  32  23 W22       30.17F
LARAMIE        SUNNY     72  26  18 W18G26    30.16F
CHEYENNE       SUNNY     76  37  24 SW9G17    30.09F
TORRINGTON     SUNNY     81  37  20 W17       29.96F
PINE BLUFFS    FAIR      79  41  25 SW12G21   30.05F

$$



USA.gov is the U.S. government's official web portal to all federal, state and local government web resources and services.